Location: Unspecified
(40.7945°N, 111.1337°W)
Time: 18:42:14
(UTC-06:00)

Transit 2A Rocket - All Passes

Search period start: 26 June 2019 00:00
Search period end: 06 July 2019 00:00
Orbit: 587 x 916 km, 66.7° (Epoch: 26 June)

Date Brightness Start Highest point End Pass type
(mag) Time Alt. Az. Time Alt. Az. Time Alt. Az.
26 Jun - 09:59:47 10° SSW 10:05:48 61° ESE 10:11:39 10° NE daylight
26 Jun - 11:43:48 10° WSW 11:48:49 26° NW 11:53:42 10° N daylight
26 Jun - 18:44:57 10° NNW 18:49:51 41° NE 18:54:19 10° ESE daylight
26 Jun - 20:28:12 10° NW 20:32:06 23° WSW 20:35:44 10° SSW daylight
27 Jun - 09:17:53 10° S 09:23:24 37° ESE 09:28:50 10° NE daylight
27 Jun - 11:00:21 10° WSW 11:06:01 39° NW 11:11:33 10° NNE daylight
27 Jun - 18:02:46 10° N 18:07:04 25° NE 18:11:03 10° ESE daylight
27 Jun - 19:45:06 10° NW 19:49:52 42° WSW 19:54:12 10° S daylight
28 Jun - 08:36:34 10° SSE 08:41:08 22° ESE 08:45:38 10° ENE daylight
28 Jun - 10:17:19 10° SW 10:23:22 62° WNW 10:29:13 10° NNE daylight
28 Jun - 12:04:09 10° WNW 12:07:07 14° NW 12:10:02 10° N daylight
28 Jun - 17:20:51 10° N 17:24:08 17° NE 17:27:15 10° E daylight
28 Jun - 19:02:22 10° NNW 19:07:29 79° WSW 19:12:05 10° SSE daylight
29 Jun - 07:56:28 10° SE 07:58:58 13° ESE 08:01:27 10° ENE daylight
29 Jun - 09:34:41 10° SSW 09:40:48 84° ESE 09:46:45 10° NNE daylight
29 Jun - 11:19:44 10° W 11:24:06 20° NW 11:28:21 10° N daylight
29 Jun - 16:39:43 10° NNE 16:41:04 11° NE 16:42:24 10° NE daylight
29 Jun - 18:19:52 10° NNW 18:24:57 58° ENE 18:29:32 10° SE daylight
29 Jun - 20:04:03 10° WNW 20:06:51 15° WSW 20:09:31 10° SW daylight
30 Jun - 08:52:28 10° S 08:58:21 51° ESE 09:04:05 10° NE daylight
30 Jun - 10:35:58 10° WSW 10:41:14 30° NW 10:46:20 10° N daylight
30 Jun - 17:37:34 10° NNW 17:42:16 34° NE 17:46:33 10° ESE daylight
30 Jun - 19:20:28 10° NW 19:24:41 28° WSW 19:28:36 10° SSW daylight
01 Jul - 08:10:45 10° S 08:16:00 31° ESE 08:21:09 10° NE daylight
01 Jul - 09:52:39 10° SW 09:58:29 46° NW 10:04:07 10° NNE daylight
01 Jul - 11:41:21 10° NW 11:42:33 11° NW 11:43:43 10° NNW daylight
01 Jul - 16:55:28 10° N 16:59:26 22° NE 17:03:07 10° E daylight
01 Jul - 18:37:31 10° NW 18:42:24 52° WSW 18:46:50 10° S daylight
02 Jul - 07:29:43 10° SSE 07:33:45 19° ESE 07:37:44 10° ENE daylight
02 Jul - 09:09:45 10° SW 09:15:51 73° WNW 09:21:45 10° NNE daylight
02 Jul - 10:55:57 10° WNW 10:59:26 16° NW 11:02:51 10° N daylight
02 Jul - 16:13:44 10° N 16:16:27 14° NE 16:19:03 10° ENE daylight
02 Jul - 17:54:53 10° NNW 17:59:58 85° ENE 18:04:34 10° SSE daylight
03 Jul - 06:51:20 10° ESE 06:51:38 10° E 06:51:54 10° E daylight
03 Jul - 08:27:16 10° SSW 08:33:20 72° ESE 08:39:13 10° NE daylight
03 Jul - 10:11:47 10° W 10:16:29 23° NW 10:21:01 10° N daylight
03 Jul - 17:12:27 10° NNW 17:17:23 48° NE 17:21:52 10° SE daylight
03 Jul - 18:56:05 10° WNW 18:59:28 19° WSW 19:02:38 10° SSW daylight
04 Jul - 07:45:12 10° S 07:50:55 43° ESE 07:56:28 10° NE daylight
04 Jul - 09:28:10 10° WSW 09:33:39 34° NW 09:38:56 10° NNE daylight
04 Jul - 16:30:13 10° N 16:34:39 29° NE 16:38:44 10° ESE daylight
04 Jul - 18:12:48 10° NW 18:17:15 34° WSW 18:21:22 10° S daylight
05 Jul - 07:03:40 10° SSE 07:08:36 26° ESE 07:13:25 10° NE daylight
05 Jul - 08:45:01 10° SW 08:50:57 53° NW 08:56:40 10° NNE daylight
05 Jul - 10:32:39 10° WNW 10:34:50 12° NW 10:37:00 10° NNW daylight
05 Jul - 15:48:13 10° N 15:51:46 18° NE 15:55:06 10° E daylight
05 Jul - 17:29:58 10° NW 17:34:55 64° WSW 17:39:25 10° SSE daylight
